Regional Weather Roundup
Issued by NWS Upton, NY

Current Version | Previous Version | Graphics & Text | Print | Product List | Glossary Off
Versions: 1 2 3 4 5 6 7 8 9 10 11 12 13 14 15 16 17 18 19 20 21 22 23 24 25 26 27
000 ASUS41 KOKX 242208 RWROKX REGIONAL WEATHER ROUNDUP NATIONAL WEATHER SERVICE NEW YORK NY 600 PM EDT FRI MAR 24 2017 NOTE: "FAIR" INDICATES FEW OR NO CLOUDS BELOW 12,000 FEET WITH NO SIGNIFICANT WEATHER AND/OR OBSTRUCTIONS TO VISIBILITY. NYZ071-072-176-178-NJZ106-104-242300- NEW YORK CITY METRO AREA CITY SKY/WX TMP DP RH WIND PRES REMARKS Central Park CLOUDY 56 32 40 MISG 30.15F Wall St Helipt CLOUDY 54 34 47 W9 30.14F LaGuardia APRT CLOUDY 58 32 37 SW9 30.12F Kennedy INTL PTSUNNY 47 38 71 S13 30.15F Breezy Point N/A 45 N/A N/A S7 N/A Newark/Liberty PTSUNNY 58 34 40 SW12 30.12F Teterboro CLOUDY 57 34 41 SW7 30.11F $$ NYZ177-179-078>081-242300- LONG ISLAND NEW YORK CITY SKY/WX TMP DP RH WIND PRES REMARKS Jones Beach N/A 45 N/A N/A SW14G21 N/A Matinecock PT N/A 46 N/A N/A S3 N/A Farmingdale CLOUDY 47 35 63 SW14G21 30.15F MacArthur/ISP CLOUDY 45 34 65 SW13G24 30.15F Shirley CLOUDY 45 33 63 SW15G24 30.17F Westhampton CLOUDY 44 32 62 SW13G22 30.18F East Hampton CLOUDY 44 32 63 SW13G20 30.16R Montauk N/A 46 32 58 SW12G22 30.17F $$ NYZ052-065-067-242300- HUDSON VALLEY CITY SKY/WX TMP DP RH WIND PRES REMARKS White Plains PTSUNNY 50 29 44 CALM 30.12F Newburgh PTSUNNY 46 36 66 S6 30.11F Montgomery MOSUNNY 46 32 58 SW10 30.09F Poughkeepsie PTSUNNY 45 32 60 VRB5 30.11F Albany CLOUDY 40 31 70 S12G24 30.04F WCI 33 $$ NJZ001-105-106-008-010-013-015-019>022-104-242300- NEW JERSEY CITY SKY/WX TMP DP RH WIND PRES REMARKS Newark/Liberty PTSUNNY 58 34 40 SW12 30.12F Teterboro CLOUDY 57 34 41 SW7 30.11F Caldwell MOSUNNY 55 33 43 SW9 30.12F Somerville PTSUNNY 56 35 45 VRB6 30.11F Linden MOCLDY 57 32 38 W12 30.13S Sussex SUNNY 50 33 52 SW12G18 30.11F Andover N/A 48 32 53 S6 30.11F Trenton MOSUNNY 56 35 45 SW14G25 30.13F Millville MOSUNNY 56 33 42 SW10 30.19F Atlantic City MOSUNNY 55 37 50 S13 30.19F Wrightstown PTSUNNY 59 35 40 SW20G26 30.11F Toms River MOSUNNY 60 34 37 SW17 30.15F Belmar SUNNY 59 32 36 SW10 30.14F $$ PAZ047>061-062-071-242300- EASTERN PENNSYLVANIA CITY SKY/WX TMP DP RH WIND PRES REMARKS Philadelphia CLOUDY 57 32 38 SW18 30.17F Allentown PTSUNNY 56 35 45 S9 30.12F Scranton MOSUNNY 49 36 61 S5 30.07F $$ CTZ002-004>006-009-010-012-RIZ004-006-007-MAZ004-011-015-242300- SOUTHERN NEW ENGLAND IN CT CITY SKY/WX TMP DP RH WIND PRES REMARKS Bradley INTL CLOUDY 44 30 57 S12 30.10F Hartford CLOUDY 45 29 53 S12G17 30.13F Danbury CLOUDY 47 29 49 SW5 30.13F Wtrbury/Oxford CLOUDY 45 27 49 SW7 30.13F Bridgeport CLOUDY 47 32 56 SW3 30.14F Meriden CLOUDY 46 29 51 SW7 30.14F New Haven CLOUDY 43 32 65 CALM 30.15F Chester NOT AVBL Groton CLOUDY 44 32 62 SW12 30.15F Wilimantic CLOUDY 46 28 49 SW13G18 30.13F IN RI CITY SKY/WX TMP DP RH WIND PRES REMARKS Providence CLOUDY 46 26 45 SW16G23 30.14F Block Island CLOUDY 44 34 67 SW20 30.16F Westerly CLOUDY 45 33 63 SW12 30.16F IN MA CITY SKY/WX TMP DP RH WIND PRES REMARKS Boston CLOUDY 43 28 55 SW14 30.11F Worcester CLOUDY 39 26 59 SW17 30.05F WCI 30 Westfield CLOUDY 42 30 62 S14 30.07F Provincetown CLOUDY 42 31 64 SW22G28 30.13F Nantucket CLOUDY 42 37 82 S18 30.19F $$ ANZ330-335-338-340-345-350-353-355-242300- COASTAL MARINE OBSERVATIONS STATION/POSITION TIME SKY/WX TEMP WIND PRES VSBY WAVE AIR SEA DIR/SP/G HT/PER (UTC) (F) (DEG/KT/KT) (MB) (MI) (FT/S) NY HARB ENTRANCE 2050 44 41 200/ 23/ 27 1021.1 6/ 6 20 S FIRE ISLAND 2150 45 40 210/ 21/ 27 1020.6 7/ 6 GREAT SOUTH BAY NOT AVBL 23 SSW MONTAUK P 2050 45 42 1022.3 6/ 6 15 E BARNEGAT LI 2130 43 N/A 6/ 5 HUDSON CANYON 2050 48 45 200/ 17/ 23 1024.5 5/ 6 KINGS POINT 2136 50 39 1020.2 EXECUTION ROCKS NOT AVBL CENTRAL LI SOUND 2115 41 240/ 8/ 8 N/A 2/ 4 EASTERN LI SOUND NOT AVBL ROBBINS REEF 2148 57 250/ 10/ 12 1020.3 $$ >>>>>>>>>>>>>>>>>>>>>>>>>>>> KEY <<<<<<<<<<<<<<<<<<<<<<<<<<< > < > SKY/WX - Sky Condition/Present Weather < > TMP - Temperature in Fahrenheit < > DP - Dew Point in Fahrenheit < > RH - Relative Humidity in Percent < > WIND - Direction (from) and Speed in MPH < > PRES - Mean Sea Level Pressure (inches of Hg) < > WCI - Wind Chill Index < > VSB - VISIBILITY IN MILES < > HX - HEAT INDEX < > TC - TEMPERATURE IN CELSIUS < > VRB - VARIABLE WIND DIRECTION < > < >>>>>>>>>>>>>>>>>>>>>>>>>>>> KEY <<<<<<<<<<<<<<<<<<<<<<<<<<<

USA.gov is the U.S. government's official web portal to all federal, state and local government web resources and services.